Orbital Elements at Epoch 2459200.5 (2020-Dec-17.0) TDB
Reference: JPL 11 (heliocentric ecliptic J2000)
Element | Value | Uncertainty (1-sigma) | Units |
e | .09923149451081795 | 6.7782e-08 | |
a | 3.425629007500901 | 6.0742e-08 | au |
q | 3.085698721446977 | 2.1339e-07 | au |
i | 8.008380079649315 | 8.0756e-06 | deg |
node | 202.7964106509715 | 5.836e-05 | deg |
peri | 234.1246149541754 | 8.5594e-05 | deg |
M | 100.2213978625304 | 5.6009e-05 | deg |
tp | 2458555.786338234139 (2019-Mar-13.28633823) | 0.00036481 | TDB |
period | 2315.841957763029 6.34 | 6.1595e-05 1.686e-07 | d yr |
n | .155451022377943 | 4.1346e-09 | deg/d |
Q | 3.765559293554825 | 6.6769e-08 | au |
|
| | Orbit Determination Parameters
Additional Information
|